Time,TemperatureF,DewpointF,PressureIn,WindDirection,WindDirectionDegrees,WindSpeedMPH,WindSpeedGustMPH,Humidity,HourlyPrecipIn,Conditions,Clouds,dailyrainin,SoftwareType,DateUTC
2013-11-29 00:05:00,16.1,12.0,30.41,East,90,1.0,5.0,83,0.00,,,0.00,weatherlink.com 1.10,2013-11-29 05:05:00,
2013-11-29 00:20:00,16.0,12.0,30.41,East,90,2.0,3.0,84,0.00,,,0.00,weatherlink.com 1.10,2013-11-29 05:20:00,
2013-11-29 00:35:00,15.9,12.0,30.41,East,90,1.0,5.0,84,0.00,,,0.00,weatherlink.com 1.10,2013-11-29 05:35:00,
2013-11-29 00:50:00,15.9,12.0,30.41,East,90,2.0,5.0,85,0.00,,,0.00,weatherlink.com 1.10,2013-11-29 05:50:00,
2013-11-29 01:05:00,15.8,13.0,30.41,East,89,2.0,3.0,87,0.00,,,0.00,weatherlink.com 1.10,2013-11-29 06:05:00,
2013-11-29 01:20:00,15.7,13.0,30.41,East,89,2.0,3.0,88,0.00,,,0.00,weatherlink.com 1.10,2013-11-29 06:20:00,
2013-11-29 01:35:00,15.6,13.0,30.41,East,89,1.0,3.0,90,0.00,,,0.00,weatherlink.com 1.10,2013-11-29 06:35:00,
2013-11-29 01:50:00,15.6,14.0,30.42,East,89,3.0,3.0,91,0.00,,,0.00,weatherlink.com 1.10,2013-11-29 06:50:00,
2013-11-29 02:05:00,15.6,14.0,30.42,East,89,1.0,3.0,92,0.00,,,0.00,weatherlink.com 1.10,2013-11-29 07:05:00,
2013-11-29 02:20:00,15.7,14.0,30.42,East,89,2.0,3.0,92,0.00,,,0.00,weatherlink.com 1.10,2013-11-29 07:20:00,
2013-11-29 02:35:00,15.8,14.0,30.42,East,89,1.0,3.0,92,0.00,,,0.00,weatherlink.com 1.10,2013-11-29 07:35:00,
2013-11-29 02:50:00,15.8,14.0,30.42,East,89,1.0,3.0,93,0.00,,,0.00,weatherlink.com 1.10,2013-11-29 07:50:00,
2013-11-29 03:05:00,15.8,14.0,30.42,East,89,0.0,3.0,93,0.00,,,0.00,weatherlink.com 1.10,2013-11-29 08:05:00,
2013-11-29 03:20:00,15.8,14.0,30.42,East,89,0.0,2.0,93,0.00,,,0.00,weatherlink.com 1.10,2013-11-29 08:20:00,
2013-11-29 03:35:00,15.8,14.0,30.43,East,86,0.0,2.0,93,0.00,,,0.00,weatherlink.com 1.10,2013-11-29 08:35:00,
2013-11-29 03:50:00,15.8,14.0,30.42,ENE,61,0.0,1.0,92,0.00,,,0.00,weatherlink.com 1.10,2013-11-29 08:50:00,
2013-11-29 04:05:00,15.7,14.0,30.42,ENE,76,1.0,3.0,92,0.00,,,0.00,weatherlink.com 1.10,2013-11-29 09:05:00,
2013-11-29 04:20:00,15.9,14.0,30.43,East,91,2.0,3.0,92,0.00,,,0.00,weatherlink.com 1.10,2013-11-29 09:20:00,
2013-11-29 04:35:00,16.0,14.0,30.43,East,90,0.0,2.0,92,0.00,,,0.00,weatherlink.com 1.10,2013-11-29 09:35:00,
2013-11-29 04:50:00,15.9,14.0,30.43,East,90,0.0,2.0,92,0.00,,,0.00,weatherlink.com 1.10,2013-11-29 09:50:00,
2013-11-29 05:05:00,15.7,14.0,30.44,East,90,0.0,2.0,92,0.00,,,0.00,weatherlink.com 1.10,2013-11-29 10:05:00,
2013-11-29 05:20:00,15.6,14.0,30.44,East,90,0.0,1.0,92,0.00,,,0.00,weatherlink.com 1.10,2013-11-29 10:20:00,
2013-11-29 05:35:00,15.3,13.0,30.44,East,91,0.0,1.0,92,0.00,,,0.00,weatherlink.com 1.10,2013-11-29 10:35:00,
2013-11-29 05:50:00,14.6,13.0,30.45,East,91,0.0,0.0,91,0.00,,,0.00,weatherlink.com 1.10,2013-11-29 10:50:00,
2013-11-29 06:05:00,13.9,12.0,30.45,East,91,0.0,0.0,91,0.00,,,0.00,weatherlink.com 1.10,2013-11-29 11:05:00,
2013-11-29 06:20:00,13.5,12.0,30.46,East,91,0.0,0.0,92,0.00,,,0.00,weatherlink.com 1.10,2013-11-29 11:20:00,
2013-11-29 06:35:00,-999.0,-99.9,30.46,North,-999,-999.0,-999.0,-999,0.00,,,0.00,weatherlink.com 1.10,2013-11-29 11:35:00,
2013-11-29 06:51:00,-999.0,-99.9,30.47,North,-999,-999.0,-999.0,-999,0.00,,,0.00,weatherlink.com 1.10,2013-11-29 11:51:00,
2013-11-29 07:06:00,-999.0,-99.9,30.47,North,-999,-999.0,-999.0,-999,0.00,,,0.00,weatherlink.com 1.10,2013-11-29 12:06:00,
2013-11-29 07:21:00,-999.0,-99.9,30.48,North,-999,-999.0,-999.0,-999,0.00,,,0.00,weatherlink.com 1.10,2013-11-29 12:21:00,
2013-11-29 07:36:00,-999.0,-99.9,30.49,North,-999,-999.0,-999.0,-999,0.00,,,0.00,weatherlink.com 1.10,2013-11-29 12:36:00,
2013-11-29 07:51:00,-999.0,-99.9,30.50,North,-999,-999.0,-999.0,-999,0.00,,,0.00,weatherlink.com 1.10,2013-11-29 12:51:00,
2013-11-29 08:06:00,15.5,14.0,30.51,East,91,1.0,3.0,94,0.00,,,0.00,weatherlink.com 1.10,2013-11-29 13:06:00,
2013-11-29 08:21:00,16.0,14.0,30.51,ENE,65,1.0,3.0,93,0.00,,,0.00,weatherlink.com 1.10,2013-11-29 13:21:00,
2013-11-29 08:36:00,16.4,15.0,30.52,NE,40,1.0,4.0,93,0.00,,,0.00,weatherlink.com 1.10,2013-11-29 13:36:00,
2013-11-29 08:51:00,16.8,15.0,30.53,NE,42,4.0,6.0,93,0.00,,,0.00,weatherlink.com 1.10,2013-11-29 13:51:00,
2013-11-29 09:06:00,16.8,15.0,30.54,East,79,2.0,5.0,92,0.00,,,0.00,weatherlink.com 1.10,2013-11-29 14:06:00,
2013-11-29 09:21:00,17.2,15.0,30.54,NE,45,3.0,7.0,91,0.00,,,0.00,weatherlink.com 1.10,2013-11-29 14:21:00,
2013-11-29 09:36:00,17.2,15.0,30.55,NE,34,0.0,7.0,91,0.00,,,0.00,weatherlink.com 1.10,2013-11-29 14:36:00,
2013-11-29 09:51:00,17.3,15.0,30.55,East,94,2.0,7.0,92,0.00,,,0.00,weatherlink.com 1.10,2013-11-29 14:51:00,
2013-11-29 10:06:00,17.5,15.0,30.55,NE,40,6.0,9.0,91,0.00,,,0.00,weatherlink.com 1.10,2013-11-29 15:06:00,
2013-11-29 10:21:00,17.7,16.0,30.55,ENE,78,2.0,7.0,91,0.00,,,0.00,weatherlink.com 1.10,2013-11-29 15:21:00,
2013-11-29 10:36:00,18.8,16.0,30.55,North,9,5.0,10.0,87,0.00,,,0.00,weatherlink.com 1.10,2013-11-29 15:36:00,
2013-11-29 10:51:00,19.0,15.0,30.55,NE,46,4.0,7.0,84,0.00,,,0.00,weatherlink.com 1.10,2013-11-29 15:51:00,
2013-11-29 11:06:00,19.9,15.0,30.55,NE,34,1.0,7.0,81,0.00,,,0.00,weatherlink.com 1.10,2013-11-29 16:06:00,
2013-11-29 11:21:00,21.6,16.0,30.54,NE,48,2.0,13.0,78,0.00,,,0.00,weatherlink.com 1.10,2013-11-29 16:21:00,
2013-11-29 11:36:00,21.5,16.0,30.55,East,82,6.0,10.0,79,0.00,,,0.00,weatherlink.com 1.10,2013-11-29 16:36:00,
2013-11-29 11:51:00,21.8,16.0,30.55,NE,38,0.0,7.0,77,0.00,,,0.00,weatherlink.com 1.10,2013-11-29 16:51:00,
2013-11-29 12:06:00,21.2,15.0,30.55,NNE,16,3.0,9.0,78,0.00,,,0.00,weatherlink.com 1.10,2013-11-29 17:06:00,
2013-11-29 12:21:00,21.3,15.0,30.55,NNE,30,0.0,9.0,76,0.00,,,0.00,weatherlink.com 1.10,2013-11-29 17:21:00,
2013-11-29 12:36:00,21.3,15.0,30.55,NNE,33,3.0,11.0,76,0.00,,,0.00,weatherlink.com 1.10,2013-11-29 17:36:00,
2013-11-29 12:51:00,20.9,16.0,30.55,East,85,2.0,10.0,80,0.00,,,0.00,weatherlink.com 1.10,2013-11-29 17:51:00,
2013-11-29 13:06:00,21.7,15.0,30.55,NNE,29,2.0,7.0,76,0.00,,,0.00,weatherlink.com 1.10,2013-11-29 18:06:00,
2013-11-29 13:22:00,21.6,15.0,30.56,NNE,17,3.0,12.0,77,0.00,,,0.00,weatherlink.com 1.10,2013-11-29 18:22:00,
2013-11-29 13:37:00,21.4,15.0,30.56,ENE,63,1.0,9.0,75,0.00,,,0.00,weatherlink.com 1.10,2013-11-29 18:37:00,
2013-11-29 13:52:00,21.1,14.0,30.55,NE,44,1.0,7.0,74,0.00,,,0.00,weatherlink.com 1.10,2013-11-29 18:52:00,
2013-11-29 14:07:00,20.9,14.0,30.55,ESE,111,2.0,7.0,75,0.00,,,0.00,weatherlink.com 1.10,2013-11-29 19:07:00,
2013-11-29 14:22:00,21.6,15.0,30.55,ESE,111,0.0,3.0,75,0.00,,,0.00,weatherlink.com 1.10,2013-11-29 19:22:00,
2013-11-29 14:37:00,21.8,14.0,30.56,NNW,346,2.0,11.0,72,0.00,,,0.00,weatherlink.com 1.10,2013-11-29 19:37:00,
2013-11-29 14:52:00,22.7,15.0,30.56,East,91,5.0,7.0,72,0.00,,,0.00,weatherlink.com 1.10,2013-11-29 19:52:00,
2013-11-29 15:07:00,22.7,15.0,30.57,NE,53,6.0,8.0,71,0.00,,,0.00,weatherlink.com 1.10,2013-11-29 20:07:00,
2013-11-29 15:22:00,22.1,14.0,30.58,NE,44,2.0,8.0,70,0.00,,,0.00,weatherlink.com 1.10,2013-11-29 20:22:00,
2013-11-29 15:37:00,21.2,13.0,30.58,NE,36,2.0,11.0,71,0.00,,,0.00,weatherlink.com 1.10,2013-11-29 20:37:00,
2013-11-29 15:52:00,20.6,13.0,30.59,NE,42,5.0,9.0,73,0.00,,,0.00,weatherlink.com 1.10,2013-11-29 20:52:00,
2013-11-29 16:07:00,20.3,12.0,30.59,NE,51,6.0,8.0,71,0.00,,,0.00,weatherlink.com 1.10,2013-11-29 21:07:00,
2013-11-29 16:22:00,19.8,12.0,30.60,ENE,78,1.0,5.0,73,0.00,,,0.00,weatherlink.com 1.10,2013-11-29 21:22:00,
2013-11-29 16:37:00,19.3,12.0,30.60,ENE,78,0.0,5.0,74,0.00,,,0.00,weatherlink.com 1.10,2013-11-29 21:37:00,
2013-11-29 16:52:00,18.8,12.0,30.61,NE,49,1.0,4.0,76,0.00,,,0.00,weatherlink.com 1.10,2013-11-29 21:52:00,
2013-11-29 17:07:00,18.5,12.0,30.61,East,79,0.0,3.0,75,0.00,,,0.00,weatherlink.com 1.10,2013-11-29 22:07:00,
2013-11-29 17:22:00,18.1,12.0,30.62,ENE,67,0.0,4.0,77,0.00,,,0.00,weatherlink.com 1.10,2013-11-29 22:22:00,
2013-11-29 17:37:00,17.4,12.0,30.62,NE,35,0.0,4.0,79,0.00,,,0.00,weatherlink.com 1.10,2013-11-29 22:37:00,
2013-11-29 17:52:00,16.0,11.0,30.62,NNE,13,0.0,3.0,81,0.00,,,0.00,weatherlink.com 1.10,2013-11-29 22:52:00,
2013-11-29 18:07:00,15.0,10.0,30.63,NNE,17,0.0,2.0,82,0.00,,,0.00,weatherlink.com 1.10,2013-11-29 23:07:00,
2013-11-29 18:22:00,14.4,10.0,30.63,NE,53,0.0,2.0,84,0.00,,,0.00,weatherlink.com 1.10,2013-11-29 23:22:00,
2013-11-29 18:37:00,14.0,10.0,30.63,East,96,1.0,5.0,84,0.00,,,0.00,weatherlink.com 1.10,2013-11-29 23:37:00,
2013-11-29 18:52:00,13.4,9.0,30.64,SE,144,2.0,3.0,84,0.00,,,0.00,weatherlink.com 1.10,2013-11-29 23:52:00,
2013-11-29 19:07:00,12.4,9.0,30.64,SE,144,0.0,1.0,85,0.00,,,0.00,weatherlink.com 1.10,2013-11-30 00:07:00,
2013-11-29 19:22:00,12.5,9.0,30.65,SSE,159,0.0,5.0,85,0.00,,,0.00,weatherlink.com 1.10,2013-11-30 00:22:00,
2013-11-29 19:37:00,12.6,8.0,30.66,SSE,159,1.0,2.0,83,0.00,,,0.00,weatherlink.com 1.10,2013-11-30 00:37:00,
2013-11-29 19:52:00,11.6,8.0,30.66,SSE,159,0.0,1.0,85,0.00,,,0.00,weatherlink.com 1.10,2013-11-30 00:52:00,
2013-11-29 20:08:00,10.9,8.0,30.66,SSE,159,0.0,1.0,87,0.00,,,0.00,weatherlink.com 1.10,2013-11-30 01:08:00,
2013-11-29 20:23:00,10.4,7.0,30.66,SSE,159,0.0,1.0,86,0.00,,,0.00,weatherlink.com 1.10,2013-11-30 01:23:00,
2013-11-29 20:38:00,10.2,7.0,30.67,NNE,30,1.0,4.0,86,0.00,,,0.00,weatherlink.com 1.10,2013-11-30 01:38:00,
2013-11-29 20:53:00,12.6,7.0,30.67,ESE,109,0.0,7.0,79,0.00,,,0.00,weatherlink.com 1.10,2013-11-30 01:53:00,
2013-11-29 21:08:00,13.1,7.0,30.67,NNE,19,0.0,5.0,77,0.00,,,0.00,weatherlink.com 1.10,2013-11-30 02:08:00,
2013-11-29 21:23:00,13.8,7.0,30.67,NNW,336,0.0,10.0,74,0.00,,,0.00,weatherlink.com 1.10,2013-11-30 02:23:00,
2013-11-29 21:38:00,13.9,7.0,30.67,NNW,343,0.0,8.0,74,0.00,,,0.00,weatherlink.com 1.10,2013-11-30 02:38:00,
2013-11-29 21:53:00,13.4,7.0,30.67,ENE,61,1.0,8.0,75,0.00,,,0.00,weatherlink.com 1.10,2013-11-30 02:53:00,
2013-11-29 22:08:00,12.3,7.0,30.67,NNE,33,1.0,8.0,78,0.00,,,0.00,weatherlink.com 1.10,2013-11-30 03:08:00,
2013-11-29 22:23:00,11.0,6.0,30.66,NNE,32,1.0,4.0,81,0.00,,,0.00,weatherlink.com 1.10,2013-11-30 03:23:00,
2013-11-29 22:38:00,9.8,6.0,30.67,NNE,33,0.0,4.0,84,0.00,,,0.00,weatherlink.com 1.10,2013-11-30 03:38:00,
2013-11-29 22:53:00,9.6,6.0,30.67,NE,40,1.0,6.0,85,0.00,,,0.00,weatherlink.com 1.10,2013-11-30 03:53:00,
2013-11-29 23:08:00,9.6,6.0,30.68,NNE,22,0.0,8.0,86,0.00,,,0.00,weatherlink.com 1.10,2013-11-30 04:08:00,
2013-11-29 23:23:00,10.1,7.0,30.67,North,11,5.0,9.0,86,0.00,,,0.00,weatherlink.com 1.10,2013-11-30 04:23:00,
2013-11-29 23:38:00,10.2,7.0,30.68,ENE,61,4.0,8.0,87,0.00,,,0.00,weatherlink.com 1.10,2013-11-30 04:38:00,
2013-11-29 23:53:00,9.9,7.0,30.67,East,83,3.0,8.0,88,0.00,,,0.00,weatherlink.com 1.10,2013-11-30 04:53:00,